owner,sensor,date,latitude,longitude,vertical_datum,direction_of_sea_water_velocity,sea_water_speed,upward_sea_water_velocity,qcFlag 
TABS,ioos:station:wmo:42044:1,2009-04-01T00:00:00Z,26.1914,-97.0507,2.0,183.9276567,17.08012002,-99999.0,'11111222,11111222,99999999' 
TABS,ioos:station:wmo:42044:1,2009-04-01T00:30:00Z,26.1914,-97.0507,2.0,185.2357309,18.73818828,-99999.0,'11111222,11111222,99999999' 
TABS,ioos:station:wmo:42044:1,2009-04-01T01:00:00Z,26.1914,-97.0507,2.0,185.5854411,19.62317507,-99999.0,'11111222,11111222,99999999' 
TABS,ioos:station:wmo:42044:1,2009-04-01T01:30:00Z,26.1914,-97.0507,2.0,190.6682885,19.44613329,-99999.0,'11111222,11111222,99999999' 
TABS,ioos:station:wmo:42044:1,2009-04-01T02:00:00Z,26.1914,-97.0507,2.0,193.4636193,17.48041475,-99999.0,'11111222,11111222,99999999' 
TABS,ioos:station:wmo:42044:1,2009-04-01T02:30:00Z,26.1914,-97.0507,2.0,196.4701795,16.78891301,-99999.0,'11111222,11111222,99999999' 
TABS,ioos:station:wmo:42044:1,2009-04-01T03:00:00Z,26.1914,-97.0507,2.0,212.6561209,19.21794214,-99999.0,'11111222,11111222,99999999' 
TABS,ioos:station:wmo:42044:1,2009-04-01T03:30:00Z,26.1914,-97.0507,2.0,210.0507364,14.85709258,-99999.0,'11111222,11111222,99999999' 
TABS,ioos:station:wmo:42044:1,2009-04-01T04:00:00Z,26.1914,-97.0507,2.0,209.3794834,19.85340273,-99999.0,'11111222,11111222,99999999' 
TABS,ioos:station:wmo:42044:1,2009-04-01T04:30:00Z,26.1914,-97.0507,2.0,232.924903,24.05215375,-99999.0,'11111222,11111222,99999999' 
TABS,ioos:station:wmo:42044:1,2009-04-01T05:00:00Z,26.1914,-97.0507,2.0,234.7595009,24.40187083,-99999.0,'11111222,11111222,99999999' 
TABS,ioos:station:wmo:42044:1,2009-04-01T05:30:00Z,26.1914,-97.0507,2.0,246.5936718,24.67001419,-99999.0,'11111222,11111222,99999999' 
TABS,ioos:station:wmo:42044:1,2009-04-01T06:00:00Z,26.1914,-97.0507,2.0,251.3060874,24.52371301,-99999.0,'11111222,11111222,99999999' 
TABS,ioos:station:wmo:42044:1,2009-04-01T06:30:00Z,26.1914,-97.0507,2.0,260.162407,24.8757432,-99999.0,'11111222,11111222,99999999' 
TABS,ioos:station:wmo:42044:1,2009-04-01T07:00:00Z,26.1914,-97.0507,2.0,256.9306837,25.42863347,-99999.0,'11111222,11111222,99999999' 
TABS,ioos:station:wmo:42044:1,2009-04-01T07:30:00Z,26.1914,-97.0507,2.0,264.9868712,25.40717418,-99999.0,'11111222,11111222,99999999' 
TABS,ioos:station:wmo:42044:1,2009-04-01T08:00:00Z,26.1914,-97.0507,2.0,280.0904269,27.9116911,-99999.0,'11111222,11111222,99999999' 
TABS,ioos:station:wmo:42044:1,2009-04-01T08:30:00Z,26.1914,-97.0507,2.0,282.5720441,30.46029875,-99999.0,'11111222,11111222,99999999' 
TABS,ioos:station:wmo:42044:1,2009-04-01T09:00:00Z,26.1914,-97.0507,2.0,283.3685035,32.65479138,-99999.0,'11111222,11111222,99999999' 
TABS,ioos:station:wmo:42044:1,2009-04-01T09:30:00Z,26.1914,-97.0507,2.0,291.4276764,33.55957687,-99999.0,'11111222,11111222,99999999' 
TABS,ioos:station:wmo:42044:1,2009-04-01T10:00:00Z,26.1914,-97.0507,2.0,295.6660755,38.46510757,-99999.0,'11111222,11111222,99999999' 
TABS,ioos:station:wmo:42044:1,2009-04-01T10:30:00Z,26.1914,-97.0507,2.0,302.2334935,38.3976666,-99999.0,'11111222,11111222,99999999' 
TABS,ioos:station:wmo:42044:1,2009-04-01T11:00:00Z,26.1914,-97.0507,2.0,305.7290358,37.65746938,-99999.0,'11111222,11111222,99999999' 
TABS,ioos:station:wmo:42044:1,2009-04-01T11:30:00Z,26.1914,-97.0507,2.0,314.721313,40.65912198,-99999.0,'11111222,11111222,99999999' 
TABS,ioos:station:wmo:42044:1,2009-04-01T12:00:00Z,26.1914,-97.0507,2.0,318.1344661,42.80863581,-99999.0,'11111222,11111222,99999999' 
TABS,ioos:station:wmo:42044:1,2009-04-01T12:30:00Z,26.1914,-97.0507,2.0,322.4624131,43.230938,-99999.0,'11111222,11111222,99999999' 
TABS,ioos:station:wmo:42044:1,2009-04-01T13:00:00Z,26.1914,-97.0507,2.0,323.5306129,44.66708967,-99999.0,'11111222,11111222,99999999' 
TABS,ioos:station:wmo:42044:1,2009-04-01T13:30:00Z,26.1914,-97.0507,2.0,328.9501966,46.66653298,-99999.0,'11111222,11111222,99999999' 
TABS,ioos:station:wmo:42044:1,2009-04-01T14:00:00Z,26.1914,-97.0507,2.0,331.4764673,47.4950029,-99999.0,'11111222,11111222,99999999' 
TABS,ioos:station:wmo:42044:1,2009-04-01T14:30:00Z,26.1914,-97.0507,2.0,332.3499951,50.53078369,-99999.0,'11111222,11111222,99999999' 
TABS,ioos:station:wmo:42044:1,2009-04-01T15:00:00Z,26.1914,-97.0507,2.0,334.171589,49.76109424,-99999.0,'11111222,11111222,99999999' 
TABS,ioos:station:wmo:42044:1,2009-04-01T15:30:00Z,26.1914,-97.0507,2.0,335.9890972,51.38668796,-99999.0,'11111222,11111222,99999999' 
TABS,ioos:station:wmo:42044:1,2009-04-01T16:00:00Z,26.1914,-97.0507,2.0,337.552469,54.81332411,-99999.0,'11111222,11111222,99999999' 
TABS,ioos:station:wmo:42044:1,2009-04-01T16:30:00Z,26.1914,-97.0507,2.0,336.1205961,54.790167,-99999.0,'11111222,11111222,99999999' 
TABS,ioos:station:wmo:42044:1,2009-04-01T17:00:00Z,26.1914,-97.0507,2.0,341.990056,54.17446723,-99999.0,'11111222,11111222,99999999' 
TABS,ioos:station:wmo:42044:1,2009-04-01T17:30:00Z,26.1914,-97.0507,2.0,339.6881765,55.79987276,-99999.0,'11111222,11111222,99999999' 
TABS,ioos:station:wmo:42044:1,2009-04-01T18:00:00Z,26.1914,-97.0507,2.0,342.8658186,54.47794141,-99999.0,'11111222,11111222,99999999' 
TABS,ioos:station:wmo:42044:1,2009-04-01T18:30:00Z,26.1914,-97.0507,2.0,342.2948583,56.128654,-99999.0,'11111222,11111222,99999999' 
TABS,ioos:station:wmo:42044:1,2009-04-01T19:00:00Z,26.1914,-97.0507,2.0,343.1123614,53.52841208,-99999.0,'11111222,11111222,99999999' 
TABS,ioos:station:wmo:42044:1,2009-04-01T19:30:00Z,26.1914,-97.0507,2.0,346.6284847,53.74708364,-99999.0,'11111222,11111222,99999999' 
TABS,ioos:station:wmo:42044:1,2009-04-01T20:00:00Z,26.1914,-97.0507,2.0,352.7450403,51.86525812,-99999.0,'11111222,11111222,99999999' 
TABS,ioos:station:wmo:42044:1,2009-04-01T20:30:00Z,26.1914,-97.0507,2.0,351.2755644,46.60933168,-99999.0,'11111222,11111222,99999999' 
TABS,ioos:station:wmo:42044:1,2009-04-01T21:00:00Z,26.1914,-97.0507,2.0,356.8828409,43.76476208,-99999.0,'11111222,11111222,99999999' 
TABS,ioos:station:wmo:42044:1,2009-04-01T21:30:00Z,26.1914,-97.0507,2.0,356.0839785,42.90017366,-99999.0,'11111222,11111222,99999999' 
TABS,ioos:station:wmo:42044:1,2009-04-01T22:00:00Z,26.1914,-97.0507,2.0,358.5499976,43.46392182,-99999.0,'11111222,11111222,99999999' 
TABS,ioos:station:wmo:42044:1,2009-04-01T22:30:00Z,26.1914,-97.0507,2.0,358.3159461,40.4874919,-99999.0,'11111222,11111222,99999999' 
TABS,ioos:station:wmo:42044:1,2009-04-01T23:00:00Z,26.1914,-97.0507,2.0,0.237687596,36.19031086,-99999.0,'11111222,11111222,99999999' 
TABS,ioos:station:wmo:42044:1,2009-04-01T23:30:00Z,26.1914,-97.0507,2.0,5.472810332,34.49724192,-99999.0,'11111222,11111222,99999999' 
TABS,ioos:station:wmo:42044:1,2009-04-02T00:00:00Z,26.1914,-97.0507,2.0,4.160487264,32.25499186,-99999.0,'11111222,11111222,99999999' 
TABS,ioos:station:wmo:42044:1,2009-04-02T00:30:00Z,26.1914,-97.0507,2.0,11.19305935,28.79775338,-99999.0,'11111222,11111222,99999999' 
TABS,ioos:station:wmo:42044:1,2009-04-02T01:00:00Z,26.1914,-97.0507,2.0,14.00810739,24.53975754,-99999.0,'11111222,11111222,99999999' 
TABS,ioos:station:wmo:42044:1,2009-04-02T01:30:00Z,26.1914,-97.0507,2.0,14.2316355,24.2027705,-99999.0,'11111222,11111222,99999999' 
TABS,ioos:station:wmo:42044:1,2009-04-02T02:00:00Z,26.1914,-97.0507,2.0,19.9169226,22.13385868,-99999.0,'11111222,11111222,99999999' 
TABS,ioos:station:wmo:42044:1,2009-04-02T02:30:00Z,26.1914,-97.0507,2.0,22.93117996,18.83873934,-99999.0,'11111222,11111222,99999999' 
TABS,ioos:station:wmo:42044:1,2009-04-02T03:00:00Z,26.1914,-97.0507,2.0,18.2164713,17.40214067,-99999.0,'11111222,11111222,99999999' 
TABS,ioos:station:wmo:42044:1,2009-04-02T03:30:00Z,26.1914,-97.0507,2.0,16.5019182,15.56093828,-99999.0,'11111222,11111222,99999999' 
TABS,ioos:station:wmo:42044:1,2009-04-02T04:00:00Z,26.1914,-97.0507,2.0,19.76355135,13.3673782,-99999.0,'11111222,11111222,99999999' 
TABS,ioos:station:wmo:42044:1,2009-04-02T04:30:00Z,26.1914,-97.0507,2.0,25.8452678,11.03363041,-99999.0,'11111222,11111222,99999999' 
TABS,ioos:station:wmo:42044:1,2009-04-02T05:00:00Z,26.1914,-97.0507,2.0,19.59570206,11.24104088,-99999.0,'11111222,11111222,99999999' 
TABS,ioos:station:wmo:42044:1,2009-04-02T05:30:00Z,26.1914,-97.0507,2.0,16.11174616,13.26084462,-99999.0,'11111222,11111222,99999999' 
TABS,ioos:station:wmo:42044:1,2009-04-02T06:00:00Z,26.1914,-97.0507,2.0,359.0527393,9.071240268,-99999.0,'11133222,11144222,99999999' 
TABS,ioos:station:wmo:42044:1,2009-04-02T06:30:00Z,26.1914,-97.0507,2.0,19.21384398,8.143617132,-99999.0,'11133222,11111222,99999999' 
TABS,ioos:station:wmo:42044:1,2009-04-02T07:00:00Z,26.1914,-97.0507,2.0,2.74550129,11.483179,-99999.0,'11111222,11111222,99999999' 
TABS,ioos:station:wmo:42044:1,2009-04-02T07:30:00Z,26.1914,-97.0507,2.0,359.8239167,9.750046154,-99999.0,'11133222,11144222,99999999' 
TABS,ioos:station:wmo:42044:1,2009-04-02T08:00:00Z,26.1914,-97.0507,2.0,354.8688549,11.51615387,-99999.0,'11111222,11111222,99999999' 
TABS,ioos:station:wmo:42044:1,2009-04-02T08:30:00Z,26.1914,-97.0507,2.0,353.6661568,10.33307795,-99999.0,'11111222,11111222,99999999' 
TABS,ioos:station:wmo:42044:1,2009-04-02T09:00:00Z,26.1914,-97.0507,2.0,349.4528634,11.19922319,-99999.0,'11111222,11111222,99999999' 
TABS,ioos:station:wmo:42044:1,2009-04-02T09:30:00Z,26.1914,-97.0507,2.0,350.1246375,12.53574888,-99999.0,'11111222,11111222,99999999' 
TABS,ioos:station:wmo:42044:1,2009-04-02T10:00:00Z,26.1914,-97.0507,2.0,1.940632202,18.31049972,-99999.0,'11111222,11111222,99999999' 
TABS,ioos:station:wmo:42044:1,2009-04-02T10:30:00Z,26.1914,-97.0507,2.0,5.936534928,16.92073875,-99999.0,'11111222,11111222,99999999' 
TABS,ioos:station:wmo:42044:1,2009-04-02T11:00:00Z,26.1914,-97.0507,2.0,10.49392499,18.4485555,-99999.0,'11111222,11111222,99999999' 
TABS,ioos:station:wmo:42044:1,2009-04-02T11:30:00Z,26.1914,-97.0507,2.0,16.74280294,20.23791738,-99999.0,'11111222,11111222,99999999' 
TABS,ioos:station:wmo:42044:1,2009-04-02T12:00:00Z,26.1914,-97.0507,2.0,4.792800806,18.07319009,-99999.0,'11111222,11111222,99999999' 
TABS,ioos:station:wmo:42044:1,2009-04-02T12:30:00Z,26.1914,-97.0507,2.0,356.0586952,16.14819495,-99999.0,'11111222,11111222,99999999' 
TABS,ioos:station:wmo:42044:1,2009-04-02T13:00:00Z,26.1914,-97.0507,2.0,356.7503198,15.87553149,-99999.0,'11111222,11111222,99999999' 
TABS,ioos:station:wmo:42044:1,2009-04-02T13:30:00Z,26.1914,-97.0507,2.0,2.893934251,16.44096408,-99999.0,'11111222,11111222,99999999' 
TABS,ioos:station:wmo:42044:1,2009-04-02T14:00:00Z,26.1914,-97.0507,2.0,4.72947909,16.61657305,-99999.0,'11111222,11111222,99999999' 
TABS,ioos:station:wmo:42044:1,2009-04-02T14:30:00Z,26.1914,-97.0507,2.0,10.84791167,17.74712653,-99999.0,'11111222,11111222,99999999' 
TABS,ioos:station:wmo:42044:1,2009-04-02T15:00:00Z,26.1914,-97.0507,2.0,28.11452705,17.69824003,-99999.0,'11111222,11111222,99999999' 
TABS,ioos:station:wmo:42044:1,2009-04-02T15:30:00Z,26.1914,-97.0507,2.0,40.20284719,12.00630668,-99999.0,'11111222,11111222,99999999' 
TABS,ioos:station:wmo:42044:1,2009-04-02T16:00:00Z,26.1914,-97.0507,2.0,65.92562885,10.39411853,-99999.0,'11111222,11111222,99999999' 
TABS,ioos:station:wmo:42044:1,2009-04-02T16:30:00Z,26.1914,-97.0507,2.0,105.3800309,7.239254105,-99999.0,'11133222,11111222,99999999' 
TABS,ioos:station:wmo:42044:1,2009-04-02T17:00:00Z,26.1914,-97.0507,2.0,101.1143585,7.470107094,-99999.0,'11133222,11111222,99999999' 
TABS,ioos:station:wmo:42044:1,2009-04-02T17:30:00Z,26.1914,-97.0507,2.0,119.4758201,6.076528614,-99999.0,'11133222,11111222,99999999' 
TABS,ioos:station:wmo:42044:1,2009-04-02T18:00:00Z,26.1914,-97.0507,2.0,181.789696,7.683749085,-99999.0,'11133222,11111222,99999999' 
TABS,ioos:station:wmo:42044:1,2009-04-02T18:30:00Z,26.1914,-97.0507,2.0,178.2130716,11.22545767,-99999.0,'11111222,11111222,99999999' 
TABS,ioos:station:wmo:42044:1,2009-04-02T19:00:00Z,26.1914,-97.0507,2.0,183.522873,10.74029795,-99999.0,'11111222,11111222,99999999' 
TABS,ioos:station:wmo:42044:1,2009-04-02T19:30:00Z,26.1914,-97.0507,2.0,195.5137782,9.122373595,-99999.0,'11133222,11111222,99999999' 
TABS,ioos:station:wmo:42044:1,2009-04-02T20:00:00Z,26.1914,-97.0507,2.0,187.7004269,10.000185,-99999.0,'11111222,11111222,99999999' 
TABS,ioos:station:wmo:42044:1,2009-04-02T20:30:00Z,26.1914,-97.0507,2.0,205.8331622,14.71005438,-99999.0,'11111222,11111222,99999999' 
TABS,ioos:station:wmo:42044:1,2009-04-02T21:00:00Z,26.1914,-97.0507,2.0,213.9983885,14.9327459,-99999.0,'11111222,11111222,99999999' 
TABS,ioos:station:wmo:42044:1,2009-04-02T21:30:00Z,26.1914,-97.0507,2.0,214.1594042,17.93405977,-99999.0,'11111222,11111222,99999999' 
TABS,ioos:station:wmo:42044:1,2009-04-02T22:00:00Z,26.1914,-97.0507,2.0,219.3065064,18.53276018,-99999.0,'11111222,11111222,99999999' 
TABS,ioos:station:wmo:42044:1,2009-04-02T22:30:00Z,26.1914,-97.0507,2.0,221.5031054,19.01414211,-99999.0,'11111222,11111222,99999999' 
TABS,ioos:station:wmo:42044:1,2009-04-02T23:00:00Z,26.1914,-97.0507,2.0,246.9491499,13.71500273,-99999.0,'11111222,11111222,99999999' 
TABS,ioos:station:wmo:42044:1,2009-04-02T23:30:00Z,26.1914,-97.0507,2.0,240.846275,16.33996634,-99999.0,'11111222,11111222,99999999' 
TABS,ioos:station:wmo:42044:1,2009-04-03T00:00:00Z,26.1914,-97.0507,2.0,246.1980424,17.71684509,-99999.0,'11111222,11111222,99999999' 
TABS,ioos:station:wmo:42044:1,2009-04-03T00:30:00Z,26.1914,-97.0507,2.0,252.9216318,13.62058736,-99999.0,'11111222,11111222,99999999' 
TABS,ioos:station:wmo:42044:1,2009-04-03T01:00:00Z,26.1914,-97.0507,2.0,248.0092265,14.07392625,-99999.0,'11111222,11111222,99999999' 
TABS,ioos:station:wmo:42044:1,2009-04-03T01:30:00Z,26.1914,-97.0507,2.0,259.4869765,9.865596789,-99999.0,'11133222,11111222,99999999' 
TABS,ioos:station:wmo:42044:1,2009-04-03T02:00:00Z,26.1914,-97.0507,2.0,245.8570314,6.136782545,-99999.0,'11133222,11111222,99999999' 
TABS,ioos:station:wmo:42044:1,2009-04-03T02:30:00Z,26.1914,-97.0507,2.0,250.8823685,8.76329276,-99999.0,'11133222,11111222,99999999' 
TABS,ioos:station:wmo:42044:1,2009-04-03T03:00:00Z,26.1914,-97.0507,2.0,248.2775042,8.051757572,-99999.0,'11133222,11111222,99999999' 
TABS,ioos:station:wmo:42044:1,2009-04-03T03:30:00Z,26.1914,-97.0507,2.0,247.2916841,9.506934311,-99999.0,'11133222,11111222,99999999' 
TABS,ioos:station:wmo:42044:1,2009-04-03T04:00:00Z,26.1914,-97.0507,2.0,271.4299621,5.611746609,-99999.0,'11133222,11111222,99999999' 
TABS,ioos:station:wmo:42044:1,2009-04-03T04:30:00Z,26.1914,-97.0507,2.0,250.9974083,4.791085472,-99999.0,'11133222,11111222,99999999' 
TABS,ioos:station:wmo:42044:1,2009-04-03T05:00:00Z,26.1914,-97.0507,2.0,259.1224114,7.78995507,-99999.0,'11133222,11111222,99999999' 
TABS,ioos:station:wmo:42044:1,2009-04-03T05:30:00Z,26.1914,-97.0507,2.0,263.7061614,8.118928501,-99999.0,'11133222,11111222,99999999' 
TABS,ioos:station:wmo:42044:1,2009-04-03T06:00:00Z,26.1914,-97.0507,2.0,265.2500192,6.763224083,-99999.0,'11133222,11111222,99999999' 
TABS,ioos:station:wmo:42044:1,2009-04-03T06:30:00Z,26.1914,-97.0507,2.0,294.6190806,8.953909761,-99999.0,'11133222,11111222,99999999' 
TABS,ioos:station:wmo:42044:1,2009-04-03T07:00:00Z,26.1914,-97.0507,2.0,279.2232042,12.97776945,-99999.0,'11111222,11111222,99999999' 
TABS,ioos:station:wmo:42044:1,2009-04-03T07:30:00Z,26.1914,-97.0507,2.0,286.8922115,21.37209863,-99999.0,'11111222,11111222,99999999' 
TABS,ioos:station:wmo:42044:1,2009-04-03T08:00:00Z,26.1914,-97.0507,2.0,290.0123249,22.06208059,-99999.0,'11111222,11111222,99999999' 
TABS,ioos:station:wmo:42044:1,2009-04-03T08:30:00Z,26.1914,-97.0507,2.0,288.3822821,23.90999164,-99999.0,'11111222,11111222,99999999' 
TABS,ioos:station:wmo:42044:1,2009-04-03T09:00:00Z,26.1914,-97.0507,2.0,287.5464265,25.27596487,-99999.0,'11111222,11111222,99999999' 
TABS,ioos:station:wmo:42044:1,2009-04-03T09:30:00Z,26.1914,-97.0507,2.0,292.7755217,21.85392642,-99999.0,'11111222,11111222,99999999' 
TABS,ioos:station:wmo:42044:1,2009-04-03T10:00:00Z,26.1914,-97.0507,2.0,290.2240027,22.99780207,-99999.0,'11111222,11111222,99999999' 
TABS,ioos:station:wmo:42044:1,2009-04-03T10:30:00Z,26.1914,-97.0507,2.0,299.470803,19.94005266,-99999.0,'11111222,11111222,99999999' 
TABS,ioos:station:wmo:42044:1,2009-04-03T11:00:00Z,26.1914,-97.0507,2.0,307.5291489,17.56516154,-99999.0,'11111222,11111222,99999999' 
TABS,ioos:station:wmo:42044:1,2009-04-03T11:30:00Z,26.1914,-97.0507,2.0,312.0485049,16.06556877,-99999.0,'11111222,11111222,99999999' 
TABS,ioos:station:wmo:42044:1,2009-04-03T12:00:00Z,26.1914,-97.0507,2.0,312.9907666,16.13195586,-99999.0,'11111222,11111222,99999999' 
TABS,ioos:station:wmo:42044:1,2009-04-03T12:30:00Z,26.1914,-97.0507,2.0,325.8952805,14.55294128,-99999.0,'11111222,11111222,99999999' 
TABS,ioos:station:wmo:42044:1,2009-04-03T13:00:00Z,26.1914,-97.0507,2.0,315.5831151,18.07458437,-99999.0,'11111222,11111222,99999999' 
TABS,ioos:station:wmo:42044:1,2009-04-03T13:30:00Z,26.1914,-97.0507,2.0,326.3898266,15.96983406,-99999.0,'11111222,11111222,99999999' 
TABS,ioos:station:wmo:42044:1,2009-04-03T14:00:00Z,26.1914,-97.0507,2.0,328.712247,17.27189914,-99999.0,'11111222,11111222,99999999' 
TABS,ioos:station:wmo:42044:1,2009-04-03T14:30:00Z,26.1914,-97.0507,2.0,316.5249349,18.6034943,-99999.0,'11111222,11111222,99999999' 
TABS,ioos:station:wmo:42044:1,2009-04-03T15:00:00Z,26.1914,-97.0507,2.0,332.5904811,16.98701857,-99999.0,'11111222,11111222,99999999' 
TABS,ioos:station:wmo:42044:1,2009-04-03T15:30:00Z,26.1914,-97.0507,2.0,327.4446407,18.21160344,-99999.0,'11111222,11111222,99999999' 
TABS,ioos:station:wmo:42044:1,2009-04-03T16:00:00Z,26.1914,-97.0507,2.0,320.9978562,20.370108,-99999.0,'11111222,11111222,99999999' 
TABS,ioos:station:wmo:42044:1,2009-04-03T16:30:00Z,26.1914,-97.0507,2.0,327.8934816,17.36597247,-99999.0,'11111222,11111222,99999999' 
TABS,ioos:station:wmo:42044:1,2009-04-03T17:00:00Z,26.1914,-97.0507,2.0,335.0329025,19.56873016,-99999.0,'11111222,11111222,99999999' 
TABS,ioos:station:wmo:42044:1,2009-04-03T17:30:00Z,26.1914,-97.0507,2.0,342.0854844,19.50573249,-99999.0,'11111222,11111222,99999999' 
TABS,ioos:station:wmo:42044:1,2009-04-03T18:00:00Z,26.1914,-97.0507,2.0,354.0734968,20.04715691,-99999.0,'11111222,11111222,99999999' 
TABS,ioos:station:wmo:42044:1,2009-04-03T18:30:00Z,26.1914,-97.0507,2.0,352.9994724,19.44497107,-99999.0,'11111222,11111222,99999999' 
TABS,ioos:station:wmo:42044:1,2009-04-03T19:00:00Z,26.1914,-97.0507,2.0,352.9953807,19.51566806,-99999.0,'11111222,11111222,99999999' 
TABS,ioos:station:wmo:42044:1,2009-04-03T19:30:00Z,26.1914,-97.0507,2.0,354.9989935,24.43302069,-99999.0,'11111222,11111222,99999999' 
TABS,ioos:station:wmo:42044:1,2009-04-03T20:00:00Z,26.1914,-97.0507,2.0,351.924333,25.41201487,-99999.0,'11111222,11111222,99999999' 
TABS,ioos:station:wmo:42044:1,2009-04-03T20:30:00Z,26.1914,-97.0507,2.0,356.1261976,27.97392,-99999.0,'11111222,11111222,99999999' 
TABS,ioos:station:wmo:42044:1,2009-04-03T21:00:00Z,26.1914,-97.0507,2.0,355.1453723,27.6491971,-99999.0,'11111222,11111222,99999999' 
TABS,ioos:station:wmo:42044:1,2009-04-03T21:30:00Z,26.1914,-97.0507,2.0,351.786408,28.06792654,-99999.0,'11111222,11111222,99999999' 
TABS,ioos:station:wmo:42044:1,2009-04-03T22:00:00Z,26.1914,-97.0507,2.0,352.3243554,28.89894808,-99999.0,'11111222,11111222,99999999' 
TABS,ioos:station:wmo:42044:1,2009-04-03T22:30:00Z,26.1914,-97.0507,2.0,354.6037352,28.49630327,-99999.0,'11111222,11111222,99999999' 
TABS,ioos:station:wmo:42044:1,2009-04-03T23:00:00Z,26.1914,-97.0507,2.0,354.2029805,31.5815215,-99999.0,'11111222,11111222,99999999' 
TABS,ioos:station:wmo:42044:1,2009-04-03T23:30:00Z,26.1914,-97.0507,2.0,351.2123778,28.21117686,-99999.0,'11111222,11111222,99999999' 
TABS,ioos:station:wmo:42044:1,2009-04-04T00:00:00Z,26.1914,-97.0507,2.0,355.5998296,26.06683909,-99999.0,'11111222,11111222,99999999' 
TABS,ioos:station:wmo:42044:1,2009-04-04T00:30:00Z,26.1914,-97.0507,2.0,357.8975098,29.98018679,-99999.0,'11111222,11111222,99999999' 
TABS,ioos:station:wmo:42044:1,2009-04-04T01:00:00Z,26.1914,-97.0507,2.0,354.1895269,26.76753631,-99999.0,'11111222,11111222,99999999' 
TABS,ioos:station:wmo:42044:1,2009-04-04T01:30:00Z,26.1914,-97.0507,2.0,1.141942049,25.59508156,-99999.0,'11111222,11111222,99999999' 
TABS,ioos:station:wmo:42044:1,2009-04-04T02:00:00Z,26.1914,-97.0507,2.0,6.553312533,27.33861738,-99999.0,'11111222,11111222,99999999' 
TABS,ioos:station:wmo:42044:1,2009-04-04T02:30:00Z,26.1914,-97.0507,2.0,4.029391954,26.04437175,-99999.0,'11111222,11111222,99999999' 
TABS,ioos:station:wmo:42044:1,2009-04-04T03:00:00Z,26.1914,-97.0507,2.0,4.923014395,27.50144723,-99999.0,'11111222,11111222,99999999' 
TABS,ioos:station:wmo:42044:1,2009-04-04T03:30:00Z,26.1914,-97.0507,2.0,3.163590926,28.99418045,-99999.0,'11111222,11111222,99999999' 
TABS,ioos:station:wmo:42044:1,2009-04-04T04:00:00Z,26.1914,-97.0507,2.0,2.072561779,32.6313423,-99999.0,'11111222,11111222,99999999' 
TABS,ioos:station:wmo:42044:1,2009-04-04T04:30:00Z,26.1914,-97.0507,2.0,359.7094644,31.53040596,-99999.0,'11111222,11144222,99999999' 
TABS,ioos:station:wmo:42044:1,2009-04-04T05:00:00Z,26.1914,-97.0507,2.0,4.118245263,31.47125196,-99999.0,'11111222,11111222,99999999' 
TABS,ioos:station:wmo:42044:1,2009-04-04T05:30:00Z,26.1914,-97.0507,2.0,9.400294167,33.30725447,-99999.0,'11111222,11111222,99999999' 
TABS,ioos:station:wmo:42044:1,2009-04-04T06:00:00Z,26.1914,-97.0507,2.0,7.303488508,35.47782688,-99999.0,'11111222,11111222,99999999' 
TABS,ioos:station:wmo:42044:1,2009-04-04T06:30:00Z,26.1914,-97.0507,2.0,3.388537129,33.83915484,-99999.0,'11111222,11111222,99999999' 
TABS,ioos:station:wmo:42044:1,2009-04-04T07:00:00Z,26.1914,-97.0507,2.0,9.698785918,32.29152366,-99999.0,'11111222,11111222,99999999' 
TABS,ioos:station:wmo:42044:1,2009-04-04T07:30:00Z,26.1914,-97.0507,2.0,9.296924901,32.99337055,-99999.0,'11111222,11111222,99999999' 
TABS,ioos:station:wmo:42044:1,2009-04-04T08:00:00Z,26.1914,-97.0507,2.0,12.94159251,31.47959498,-99999.0,'11111222,11111222,99999999' 
TABS,ioos:station:wmo:42044:1,2009-04-04T08:30:00Z,26.1914,-97.0507,2.0,12.12379568,33.28230311,-99999.0,'11111222,11111222,99999999' 
TABS,ioos:station:wmo:42044:1,2009-04-04T09:00:00Z,26.1914,-97.0507,2.0,12.52202559,35.69916105,-99999.0,'11111222,11111222,99999999' 
TABS,ioos:station:wmo:42044:1,2009-04-04T09:30:00Z,26.1914,-97.0507,2.0,14.5056836,37.6088354,-99999.0,'11111222,11111222,99999999' 
TABS,ioos:station:wmo:42044:1,2009-04-04T10:00:00Z,26.1914,-97.0507,2.0,15.27459145,39.05978111,-99999.0,'11111222,11111222,99999999' 
TABS,ioos:station:wmo:42044:1,2009-04-04T10:30:00Z,26.1914,-97.0507,2.0,9.694106082,40.26492891,-99999.0,'11111222,11111222,99999999' 
TABS,ioos:station:wmo:42044:1,2009-04-04T11:00:00Z,26.1914,-97.0507,2.0,10.94264692,40.66943939,-99999.0,'11111222,11111222,99999999' 
TABS,ioos:station:wmo:42044:1,2009-04-04T11:30:00Z,26.1914,-97.0507,2.0,12.03989329,44.34545524,-99999.0,'11111222,11111222,99999999' 
TABS,ioos:station:wmo:42044:1,2009-04-04T12:00:00Z,26.1914,-97.0507,2.0,10.26241216,45.69093127,-99999.0,'11111222,11111222,99999999' 
TABS,ioos:station:wmo:42044:1,2009-04-04T12:30:00Z,26.1914,-97.0507,2.0,9.965835933,45.47615859,-99999.0,'11111222,11111222,99999999' 
TABS,ioos:station:wmo:42044:1,2009-04-04T13:00:00Z,26.1914,-97.0507,2.0,11.32890194,47.85233955,-99999.0,'11111222,11111222,99999999' 
TABS,ioos:station:wmo:42044:1,2009-04-04T13:30:00Z,26.1914,-97.0507,2.0,11.91740402,49.58878906,-99999.0,'11111222,11111222,99999999' 
TABS,ioos:station:wmo:42044:1,2009-04-04T14:00:00Z,26.1914,-97.0507,2.0,6.704820986,51.39145454,-99999.0,'11111222,11111222,99999999' 
TABS,ioos:station:wmo:42044:1,2009-04-04T14:30:00Z,26.1914,-97.0507,2.0,10.53083698,52.19917624,-99999.0,'11111222,11111222,99999999' 
TABS,ioos:station:wmo:42044:1,2009-04-04T15:00:00Z,26.1914,-97.0507,2.0,11.45044917,53.64772968,-99999.0,'11111222,11111222,99999999' 
TABS,ioos:station:wmo:42044:1,2009-04-04T15:30:00Z,26.1914,-97.0507,2.0,7.191749857,57.67370978,-99999.0,'11111222,11111222,99999999' 
TABS,ioos:station:wmo:42044:1,2009-04-04T16:00:00Z,26.1914,-97.0507,2.0,7.534959514,60.70415142,-99999.0,'11111222,11111222,99999999' 